Skip Page Navigation
NASA JPL Caltech
NASA Logo - Jet Propulsion Laboratory + View the NASA Portal
+ Near-Earth Object (NEO) Program
Search JPL
JPL Home Earth Solar System Stars & Galaxies Technology
JPL Solar System Dynamics
BODIES ORBITS EPHEMERIDES TOOLS PHYSICAL DATA DISCOVERY FAQ SITE MAP
JPL Small-Body Database Browser
Search: [ help ]  
48560 (1993 UX2)
Classification: Main-belt Asteroid          SPK-ID: 2048560
Ephemeris | Orbit Diagram | Orbital Elements | Physical Parameters | Discovery Circumstances ]

[ show orbit diagram ]
Orbital Elements at Epoch 2457600.5 (2016-Jul-31.0) TDB
Reference: JPL 13 (heliocentric ecliptic J2000)
 Element Value Uncertainty (1-sigma)   Units 
e .1918504619556606 6.2678e-08  
a 2.730021826068637 3.0719e-08 au
q 2.206265877588332 1.7438e-07 au
i 14.39710646261206 6.9396e-06 deg
node 106.428508300559 2.6497e-05 deg
peri 300.560635236496 3.3775e-05 deg
M 354.2000295263676 2.7338e-05 deg
tp 2457627.044276192328
(2016-Aug-26.54427619)
0.00012539 JED
period 1647.584151105783
4.51
2.7809e-05
7.614e-08
d
yr
n .2185017376856803 3.688e-09 deg/d
Q 3.253777774548941 3.6613e-08 au
  Orbit Determination Parameters
   # obs. used (total)      457  
   data-arc span      7995 days (21.89 yr)  
   first obs. used      1993-10-09  
   last obs. used      2015-08-30  
   planetary ephem.      DE431  
   SB-pert. ephem.      SB431-BIG16  
   condition code      0  
   fit RMS      .54251  
   data source      ORB  
   producer      Otto Matic  
   solution date      2015-Oct-05 14:56:52  

Additional Information
 Earth MOID = 1.25375 au 
 Jupiter MOID = 2.20093 au 
 T_jup = 3.283 
[ show covariance matrix ]

Ephemeris | Orbit Diagram | Orbital Elements | Physical Parameters | Discovery Circumstances ]

Physical Parameter Table
Parameter Symbol Value Units Sigma Reference Notes
absolute magnitude H 14.5 mag n/a MPO302336  

48560 (1993 UX2)          Discovered 1993-Oct-20 by McNaught, R. H. at Siding Spring
Reference: 20021120/Numbers.arcLast Updated: 2004-04-19

Alternate Designations
 1993 UX2 = 1998 XA88 
Ephemeris | Orbit Diagram | Orbital Elements | Physical Parameters | Discovery Circumstances ]
ABOUT SSD CREDITS/AWARDS PRIVACY/COPYRIGHT GLOSSARY LINKS
FirstGov 2016-May-02 12:35 UT
(server date/time)  
NASA Home Page
Site Manager:   Ryan S. Park
Webmaster  Alan B. Chamberlin